アトラス彗星

C/2018 O1 ( ATLAS )

English version
Home page
Updated on May 20, 2019

---------------------------------------------------------------------

・ プロフィール

発見日 2018年7月22日
発見光度 18.7等
発見者 Asteroid Terrestrial-impact Last Alert System (ATLAS) search program

・ 軌道要素

Epoch 2018 Aug. 30.0 TT = JDT 2458360.5
T 2018 Aug. 31.57474 TT                                 MPCW
q   1.5581544            (2000.0)            P               Q
n   0.00671738     Peri.  162.50631     +0.23042789     -0.86926848
a  27.8186418      Node    87.61970     -0.93693235     -0.07681665
e   0.9439888      Incl.  154.04099     -0.26279415     -0.48833545
P 147
From 318 observations 2018 July 15-Oct. 1, mean residual 0".4.

・ 光度変化

        m1 = 16.0 + 5 logΔ + 10.0 log r

---------------------------------------------------------------------

軌道要素はM.P.E.C. 2018-U70に掲載されたものです。
光度グラフはComet for Windowsで作成したものです。

---------------------------------------------------------------------

Copyright(C) Seiichi Yoshida (comet@aerith.net). All rights reserved.